CW8822 Caguas PR US current weather conditions

sailwx.info

Wind from 063

Air temperature 27.8° C
Dewpoint 25.8° C

Last reported at 2016-Aug-30 12:50 UTC.
Time now 2016-Aug-30 13:14 UTC

Location: N 18°12' W 066°01'.
View on Google Maps.

See reports from other nearby stations

  
Tides and Currents Weather Stations Pressure Air Temp Water Temp Dewpoint Dewpoint Depression Visibility Wind Speed Wind Dir Waves Ship Positions
date/time (UTC)wind fromknots sea level pressurealtimeterstation pressurevisibilityair tempwater tempwave heightnotes
2016-Aug-30 12:50 063 27.8
2016-Aug-30 12:34 136 27.2
2016-Aug-30 12:19 149 26.1
2016-Aug-30 12:04 149 25.6
2016-Aug-30 11:49 149 25.0
2016-Aug-30 11:34 149 24.4
2016-Aug-30 11:19 149 24.4
2016-Aug-30 11:04 149 24.4
2016-Aug-30 10:49 149 24.4
2016-Aug-30 10:34 149 24.4
2016-Aug-30 10:19 149 23.9
2016-Aug-30 10:04 149 23.9
2016-Aug-30 09:49 149 23.9
2016-Aug-30 09:34 149 23.9
2016-Aug-30 09:19 149 23.9
2016-Aug-30 09:04 149 23.9
2016-Aug-30 08:49 149 23.9
2016-Aug-30 08:34 149 23.9
2016-Aug-30 08:19 149 24.4
2016-Aug-30 08:04 149 24.4
2016-Aug-30 07:49 149 24.4
2016-Aug-30 07:34 149 24.4
2016-Aug-30 07:19 149 24.4
2016-Aug-30 07:04 149 24.4
2016-Aug-30 06:49 149 24.4
2016-Aug-30 06:34 149 24.4
2016-Aug-30 06:19 149 24.4
2016-Aug-30 06:03 149 25.0
2016-Aug-30 05:49 149 24.4
2016-Aug-30 05:33 149 25.0
2016-Aug-30 05:18 149 24.4
2016-Aug-30 05:03 149 24.4
2016-Aug-30 04:49 149 24.4
2016-Aug-30 04:33 149 24.4
2016-Aug-30 04:19 149 24.4
2016-Aug-30 04:03 149 24.4
2016-Aug-30 03:48 149 25.0
2016-Aug-30 03:33 149 25.0
2016-Aug-30 03:18 149 25.0
2016-Aug-30 03:03 149 25.0
2016-Aug-30 02:48 149 25.0
2016-Aug-30 02:33 149 25.0
2016-Aug-30 02:18 149 25.0
2016-Aug-30 02:03 149 25.6
2016-Aug-30 01:48 149 25.6
2016-Aug-30 01:33 149 25.6
2016-Aug-30 01:18 149 25.6
2016-Aug-30 01:03 149 26.1
2016-Aug-30 00:48 149 26.1
2016-Aug-30 00:33 142 26.1
2016-Aug-30 00:18 144 26.1
2016-Aug-30 00:03 144 26.1
2016-Aug-29 23:48 144 26.1
2016-Aug-29 23:40 144 26.1
2016-Aug-29 23:18 144 26.7
2016-Aug-29 23:03 144 26.7
2016-Aug-29 22:48 144 26.7
2016-Aug-29 22:33 144 27.2
2016-Aug-29 22:18 128 27.2
2016-Aug-29 22:03 128 27.8
2016-Aug-29 21:48 127 27.8
2016-Aug-29 21:33 098 28.3
2016-Aug-29 21:18 096 28.9
2016-Aug-29 21:03 163 29.4
2016-Aug-29 20:48 107 30.0
2016-Aug-29 20:33 111 29.4
2016-Aug-29 20:18 140 2 gusting 12 28.9
2016-Aug-29 20:03 142 1 gusting 7 29.4
2016-Aug-29 19:48 113 0 gusting 8 29.4
2016-Aug-29 19:33 105 2 gusting 10 29.4
2016-Aug-29 19:18 144 1 gusting 14 28.9
2016-Aug-29 19:03 126 2 gusting 14 29.4
2016-Aug-29 18:48 155 2 gusting 8 29.4
2016-Aug-29 18:33 179 3 gusting 13 29.4
2016-Aug-29 18:18 122 1 gusting 10 28.9
2016-Aug-29 18:03 175 4 gusting 7 30.0
2016-Aug-29 17:48 117 0 gusting 10 29.4
2016-Aug-29 17:33 060 1 gusting 6 30.6
2016-Aug-29 17:18 148 0 gusting 5 30.6
2016-Aug-29 17:03 110 1 gusting 7 30.0
2016-Aug-29 16:48 188 30.0
2016-Aug-29 16:33 181 1 gusting 8 30.0
2016-Aug-29 16:18 160 0 gusting 9 30.6
2016-Aug-29 16:03 171 1 gusting 9 30.6
2016-Aug-29 15:48 169 1 gusting 9 30.0
2016-Aug-29 15:33 144 30.6
2016-Aug-29 15:18 069 0 gusting 7 30.0
2016-Aug-29 15:03 166 30.0
2016-Aug-29 14:48 094 29.4
2016-Aug-29 14:33 094 30.0
2016-Aug-29 14:18 084 29.4
2016-Aug-29 14:03 065 0 gusting 8 29.4
2016-Aug-29 13:47 148 1 gusting 8 28.9
2016-Aug-29 13:33 144 28.3
2016-Aug-29 13:17 105 27.8
2016-Aug-29 13:04 103 26.7
2016-Aug-29 12:47 198 26.1
2016-Aug-29 12:32 199 26.1
2016-Aug-29 12:17 199 25.0
2016-Aug-29 12:02 202 24.4
2016-Aug-29 11:47 202 24.4
2016-Aug-29 11:32 202 23.9
2016-Aug-29 11:17 202 23.9
2016-Aug-29 11:02 202 23.3
2016-Aug-29 10:47 202 23.3
2016-Aug-29 10:32 202 23.9
2016-Aug-29 10:17 202 23.9
2016-Aug-29 10:02 144 23.3
2016-Aug-29 09:47 144 23.3
2016-Aug-29 09:32 144 23.9
2016-Aug-29 09:17 144 23.3
2016-Aug-29 09:02 144 23.3
2016-Aug-29 08:47 144 23.3
2016-Aug-29 08:32 144 23.3
2016-Aug-29 08:17 144 23.9
2016-Aug-29 08:02 144 24.4
2016-Aug-29 07:47 144 23.9
2016-Aug-29 07:32 144 23.9
2016-Aug-29 07:17 144 23.9
2016-Aug-29 07:02 144 23.9
2016-Aug-29 06:47 144 23.9
2016-Aug-29 06:32 144 23.9
2016-Aug-29 06:17 144 23.9
2016-Aug-29 06:02 144 23.9
2016-Aug-29 05:47 144 23.9
2016-Aug-29 05:32 144 23.9
2016-Aug-29 05:17 144 23.9
2016-Aug-29 05:02 144 23.9
2016-Aug-29 04:47 144 23.9
2016-Aug-29 04:31 144 23.9
2016-Aug-29 04:16 144 23.9
2016-Aug-29 04:01 144 23.9
2016-Aug-29 03:46 144 24.4
2016-Aug-29 03:31 144 24.4
2016-Aug-29 03:16 144 24.4
2016-Aug-29 03:01 144 24.4
2016-Aug-29 02:46 144 25.0
2016-Aug-29 02:31 144 25.0
2016-Aug-29 02:16 144 25.0
2016-Aug-29 02:01 144 25.0
2016-Aug-29 01:31 144 25.6
2016-Aug-29 01:16 144 25.6
2016-Aug-29 01:01 144 25.6
2016-Aug-29 00:46 144 25.6
2016-Aug-29 00:31 144 25.6
2016-Aug-29 00:16 144 25.6
2016-Aug-29 00:01 144 25.6
2016-Aug-28 23:46 144 25.6
2016-Aug-28 23:31 144 25.6
2016-Aug-28 23:16 144 26.1
2016-Aug-28 23:01 144 26.1
2016-Aug-28 22:46 144 26.7
2016-Aug-28 22:31 144 27.2
2016-Aug-28 22:16 145 27.8
2016-Aug-28 22:01 145 27.8
2016-Aug-28 21:46 146 28.3
2016-Aug-28 21:31 146 28.9
2016-Aug-28 21:16 148 28.3
2016-Aug-28 21:01 132 27.8
2016-Aug-28 20:46 132 27.2
2016-Aug-28 20:31 114 27.2
2016-Aug-28 20:16 100 27.8
2016-Aug-28 20:01 098 27.8
2016-Aug-28 19:46 098 27.8
2016-Aug-28 19:31 098 27.8
2016-Aug-28 19:16 098 27.2
2016-Aug-28 19:01 058 27.2
2016-Aug-28 18:46 058 26.7
2016-Aug-28 18:31 351 0 gusting 8 26.7
2016-Aug-28 18:16 040 1 gusting 10 27.2
2016-Aug-28 18:01 126 0 gusting 5 28.9
2016-Aug-28 17:46 087 1 gusting 10 29.4
2016-Aug-28 17:31 094 2 gusting 8 29.4
2016-Aug-28 17:16 080 0 gusting 7 28.3
2016-Aug-28 17:01 051 1 gusting 6 28.9
2016-Aug-28 16:46 065 0 gusting 6 30.0
2016-Aug-28 16:31 119 31.1
2016-Aug-28 16:16 085 1 gusting 6 30.6
2016-Aug-28 16:01 151 31.1
2016-Aug-28 15:46 049 1 gusting 7 30.6
2016-Aug-28 15:31 046 30.6
2016-Aug-28 15:16 048 30.0
2016-Aug-28 15:01 050 0 gusting 5 30.0
2016-Aug-28 14:46 033 30.0
2016-Aug-28 14:31 333 0 gusting 4 29.4
2016-Aug-28 14:16 033 2 gusting 6 28.3
2016-Aug-28 14:04 053 1 gusting 6 28.3
2016-Aug-28 13:46 029 28.3
2016-Aug-28 13:31 328 27.2
2016-Aug-28 13:15 326 26.7
2016-Aug-28 13:01 326 26.1